Baker City, OR (97814)

10:20 PM PST on December 03, 2016 (GMT -0800)
Baker City Municipal | | Change Station

Elev 3373 ft 44.84 °N, 117.81 °W | Updated 27 minutes ago

Mostly Cloudy
Mostly Cloudy
28 °F
Feels Like 28 °F
N
0
Wind Variable Wind from North

Today
High -- | Low -- °F
--% Chance of Precip.
Yesterday
High -- | Low -- °F
Precip. -- in
Pressure 30.21 in
Visibility 8.0 miles
Clouds Mostly Cloudy 6500 ft
Mostly Cloudy 9500 ft
Dew Point 27 °F
Humidity 96%
Rainfall 0.00 in
Snow Depth Not available.
7:11 AM 4:11 PM
Waxing Crescent, 20% visible
METAR KBKE 040553Z AUTO 00000KT 8SM BKN065 BKN095 M02/M03 A3014 RMK AO2 SLP230 T10221028 10006 21028 56011
Pressure 30.21 in
Visibility 8.0 miles
Clouds Mostly Cloudy 6500 ft
Mostly Cloudy 9500 ft
Dew Point 27 °F
Humidity 96%
Rainfall 0.00 in
Snow Depth Not available.
7:11 AM 4:11 PM
Waxing Crescent, 20% visible
METAR KBKE 040553Z AUTO 00000KT 8SM BKN065 BKN095 M02/M03 A3014 RMK AO2 SLP230 T10221028 10006 21028 56011

10-Day Weather Forecast

Almanac

Astronomy

Dec. 03, 2016 Rise Set
Actual Time
Civil Twilight
Nautical Twilight
Astronomical Twilight
Moon
Length of Visible Light
Length of Day
Tomorrow will be .
, % of the Moon is Illuminated

Today's Extremes

State Highs State Lows

Community

WunderPhotos

Upload Photos

1,955,586 photos uploaded!

WunderBlog® & News

Nearby

Air Quality

  Air Quality AQ Index Pollutant
Not available.

Snow Depth

Station Depth Elevation

Earthquake Activity

City Distance Mag. Time & Date
Minimum magnitude displayed is 2.5.

Coastal Water Temperatures

Place Temperature

Stations

Nearby Weather Stations

Station Location Temp. Windchill Dew Point Humidity Wind Precip. Elev Updated Type
                   

Watches & Warnings

There are currently no watches in effect.